Location: Kerescat
(48.5501°N, 4.7062°W)
Time: 23:32:52
(UTC+00:00)

Daily predictions for brighter satellites

Satellite Brightness Start Highest point End
(mag) Time Altitude Azimuth Time Altitude Azimuth Time Altitude Azimuth
STARLINK-1081 3.9 20:39:35 10° WNW 20:43:43 67° NNE 20:47:51 10° ESE
STARLINK-1120 4.2 20:42:22 10° WNW 20:46:21 46° SW 20:50:20 10° SE
STARLINK-1234 3.0 20:43:32 10° SW 20:46:34 50° SSE 20:49:36 10° ENE
STARLINK-1212 3.3 20:45:02 10° SW 20:47:57 38° SE 20:50:53 10° ENE
STARLINK-1209 3.0 20:45:15 10° SW 20:48:19 54° SSE 20:51:24 10° ENE
STARLINK-1105 3.3 20:45:30 10° SW 20:48:26 39° SE 20:51:21 10° ENE
IGS 5A 4.3 20:44:48 10° SE 20:48:37 37° ENE 20:52:27 10° N
STARLINK-1070 3.9 20:44:32 10° WNW 20:48:41 70° NNE 20:52:50 10° ESE
STARLINK-1247 3.3 20:46:24 10° SW 20:49:20 40° SE 20:52:17 10° ENE
Cosmos 2084 Rocket 3.4 20:45:24 10° SSW 20:49:38 69° SE 20:53:59 10° NE
STARLINK-1227 3.3 20:46:52 10° SW 20:49:47 40° SE 20:52:43 10° ENE
Crew Dragon 1.6 20:48:39 10° WNW 20:50:34 31° N 20:52:35 10° ENE
STARLINK-1226 3.3 20:47:43 10° SW 20:50:38 40° SE 20:53:36 10° ENE
Cosmos 1515 4.3 20:47:33 10° SSE 20:51:06 38° E 20:54:41 10° NNE
STARLINK-1131 4.4 20:47:21 10° WNW 20:51:18 43° SW 20:55:13 10° SE
STARLINK-1215 3.2 20:48:37 10° SW 20:51:34 41° SE 20:54:33 10° ENE
Cosmos 407 Rocket 3.6 20:46:35 10° NNW 20:51:57 77° ENE 20:57:18 10° SSE
STARLINK-1217 3.2 20:50:23 10° SW 20:53:20 43° SE 20:56:20 10° ENE
STARLINK-1069 3.8 20:49:31 10° WNW 20:53:40 73° NNE 20:57:48 10° ESE
STARLINK-1229 3.2 20:51:17 10° SW 20:54:16 43° SE 20:57:15 10° ENE
USA 245 3.5 20:51:22 10° SE 20:54:52 41° ENE 20:57:43 10° N
STARLINK-1270 3.2 20:52:08 10° SW 20:55:07 44° SE 20:58:07 10° ENE
Cosmos 724 4.4 20:49:20 10° NW 20:55:13 82° NE 21:01:12 10° SE
Cosmos 2034 Rocket 4.3 20:49:36 10° NNW 20:55:49 73° W 21:01:55 10° S
STARLINK-1190 4.5 20:52:19 10° WNW 20:56:13 40° SW 21:00:06 10° SSE
MOS 1 Rocket 4.1 20:52:13 10° N 20:56:40 52° WNW 21:00:54 10° SSW
STARLINK-1189 3.1 20:53:58 10° SW 20:56:57 45° SSE 20:59:58 10° ENE
STARLINK-1197 4.4 20:53:38 10° SSW 20:57:15 30° SE 21:00:53 10° ENE
STARLINK-1188 3.1 20:54:50 10° SW 20:57:50 46° SSE 21:00:51 10° ENE
STARLINK-1235 2.8 20:55:27 10° SW 20:58:30 58° SSE 21:01:33 10° ENE
STARLINK-1085 3.7 20:54:31 10° WNW 20:58:41 77° NNE 21:02:49 10° ESE
STARLINK-1187 2.9 20:55:54 10° SW 20:58:55 52° SSE 21:01:57 10° ENE
NOSS 2-3 (D) 4.1 20:55:07 10° S 20:59:04 38° ESE 21:03:39 10° NE
Okean 1-7 3.0 20:54:54 10° S 20:59:09 69° E 21:03:25 10° NNE
SPOT 3 Rocket 4.4 20:54:55 10° S 20:59:52 48° W 21:04:53 10° NNW
STARLINK-1191 3.0 20:57:18 10° SW 21:00:17 48° SSE 21:03:18 10° ENE
COSMOS 2406 3.4 20:54:33 10° NNW 21:00:20 65° ENE 21:06:00 10° SE
STARLINK-1221 3.0 20:58:10 10° SW 21:01:10 49° SSE 21:04:11 10° ENE
STARLINK-1222 3.0 20:59:02 10° SW 21:02:03 50° SSE 21:05:04 10° ENE
STARLINK-1198 4.3 20:58:29 10° SSW 21:02:11 32° SE 21:05:53 10° ENE
STARLINK-1214 3.0 20:59:57 10° SW 21:02:58 51° SSE 21:05:59 10° ENE
STARLINK-1086 3.7 20:59:30 10° WNW 21:03:39 81° NNE 21:07:48 10° ESE
Cosmos 1844 3.9 20:59:13 10° SSW 21:04:53 81° WNW 21:10:40 10° NNE
Abrixas rocket 2.0 21:02:10 10° WSW 21:05:03 54° SSE 21:07:57 10° E
Meteor 2-4 Rocket 4.2 21:00:08 10° SSE 21:05:06 39° E 21:10:04 10° NNE
Resurs 01 Rocket 2.1 21:00:58 10° S 21:05:21 60° W 21:09:48 10° NNW
CREW DRAGON DEMO-1 DEB 3.5 21:03:30 10° WNW 21:06:29 42° SSW 21:09:01 13° SE
STARLINK-1199 4.2 21:03:24 10° SSW 21:07:10 34° SE 21:10:56 10° ENE
SPOT 1/Viking Rocket 3.9 21:02:38 10° SE 21:07:40 54° ENE 21:12:42 10° N
USA 215 4.1 21:01:38 10° E 21:07:53 50° NNE 21:14:08 10° WNW
STARLINK-1095 3.6 21:04:28 10° WNW 21:08:38 85° NNE 21:12:43 10° ESE
Sich 1 Rocket 3.8 21:04:55 10° N 21:09:29 64° ENE 21:14:01 10° SSE
USA 229 DEB 3.7 21:03:05 10° SW 21:09:38 86° SE 21:16:35 10° NE
USA 229 3.6 21:03:13 10° SW 21:09:44 85° SE 21:16:41 10° NE
Meteor 1-4 Rocket 2.7 21:07:42 10° S 21:11:02 47° E 21:14:23 10° NNE
STARLINK-1210 4.1 21:08:16 10° SSW 21:12:05 37° SE 21:15:56 10° ENE
STARLINK-1077 3.6 21:09:27 10° WNW 21:13:36 89° NE 21:17:29 12° ESE
Cosmos 1190 Rocket 4.0 21:08:41 10° NNW 21:13:55 86° WSW 21:19:02 11° SSE
STARLINK-1078 4.5 21:11:39 10° WNW 21:15:41 49° N 21:19:44 10° E
SPOT 5 3.7 21:12:28 12° SE 21:16:57 43° ENE 21:21:57 10° N
STARLINK-1219 4.0 21:13:10 10° SSW 21:17:03 40° SE 21:20:56 10° ENE
Cosmos 1624 Rocket 4.1 21:12:18 10° S 21:17:33 65° ESE 21:22:51 10° NNE
NOSS 3-1 (C) 3.5 21:12:08 10° SW 21:17:41 81° NW 21:24:14 10° NE
Cosmos 1782 Rocket 3.8 21:13:35 10° NNW 21:18:04 73° W 21:22:31 10° S
OPS 8737 4.2 21:14:26 10° SSW 21:18:04 61° SE 21:21:02 10° NE
STARLINK-1075 3.6 21:14:26 10° WNW 21:18:35 86° SSW 21:22:17 13° ESE
NOSS 3-1 (A) 3.3 21:13:16 10° SSW 21:18:44 71° SE 21:25:08 10° NE
ATLAS CENTAUR R/B 3.1 21:17:23 10° W 21:19:33 24° NNW 21:21:10 10° NNE
STARLINK-1108 4.4 21:16:38 10° WNW 21:20:41 50° N 21:24:45 10° E
STARLINK-1211 3.9 21:18:04 10° SW 21:21:59 43° SE 21:25:56 10° ENE
Cosmos 2279 Rocket 4.3 21:16:59 10° N 21:23:09 56° ENE 21:28:35 13° SSE
STARLINK-1093 3.6 21:19:25 10° WNW 21:23:35 82° SSW 21:27:04 14° ESE
MetOp-B 4.4 21:18:28 10° S 21:23:48 71° WSW 21:29:10 10° NNW
Aureole 1 Rocket 3.3 21:19:55 10° NNW 21:23:51 70° WSW 21:28:42 11° SSE
STARLINK-1087 4.2 21:23:47 10° WSW 21:24:56 13° SW 21:25:37 12° SSW
STARLINK-1071 4.4 21:21:38 10° WNW 21:25:41 51° NNE 21:29:45 10° E
Cosmos 1140 Rocket 3.6 21:20:41 10° NNW 21:25:53 76° WSW 21:30:41 12° SSE
Cosmos 1703 Rocket 4.2 21:21:53 10° SSW 21:26:08 55° WNW 21:30:25 10° N
Okean 2 Rocket 3.3 21:22:14 10° N 21:26:39 59° ENE 21:30:13 15° SSE
STARLINK-1245 3.8 21:23:00 10° SW 21:26:57 46° SE 21:30:57 10° ENE
STARLINK-1074 3.6 21:24:24 10° WNW 21:28:33 77° SSW 21:31:51 16° SE
Cosmos 1743 4.4 21:25:17 10° NNW 21:28:40 30° W 21:32:02 10° SSW
NOSS 2-3 (C) 3.6 21:25:26 10° SSW 21:29:43 72° SE 21:34:50 10° NE
STARLINK-1110 4.3 21:25:50 10° WNW 21:29:54 53° NNE 21:33:58 10° E
Cosmos 1544 3.5 21:26:56 10° NNW 21:30:32 59° W 21:34:05 10° S
Cosmos 1371 Rocket 4.0 21:26:10 10° SSW 21:31:26 88° WNW 21:36:42 10° NNE
STARLINK-1233 3.8 21:27:54 10° SW 21:31:55 50° SE 21:35:56 10° ENE
CZ-4B DEB 4.4 21:29:42 16° SSE 21:32:13 72° ENE 21:35:33 10° N
SAR-Lupe-2 3.5 21:28:42 10° NNE 21:32:20 85° ESE 21:35:56 10° SSW
ERBS 3.6 21:32:41 19° SSE 21:33:29 20° SE 21:36:01 10° E
STARLINK-1124 4.3 21:31:37 10° WNW 21:35:41 54° NNE 21:39:46 10° E
Landsat 7 3.9 21:31:14 11° S 21:35:45 76° WSW 21:40:32 10° NNW
STARLINK-1204 3.7 21:32:51 10° SW 21:36:53 53° SE 21:40:56 10° ENE
Cosmos 1634 Rocket 4.2 21:31:35 10° NNW 21:37:54 77° W 21:44:12 10° S
STARLINK-1088 3.7 21:34:21 10° WNW 21:38:29 68° SSW 21:41:24 18° SE
Cosmos 2151 Rocket 3.9 21:35:11 10° N 21:39:40 57° ENE 21:42:53 18° SSE
Cosmos 2082 Rocket 2.6 21:34:15 10° NNW 21:39:53 54° ENE 21:44:18 16° SE
STARLINK-1122 4.2 21:36:36 10° WNW 21:40:41 56° NNE 21:44:46 10° E
Cosmos 1954 Rocket 4.0 21:35:50 10° NNW 21:41:06 85° WSW 21:45:18 16° SSE
STARLINK-1238 3.6 21:37:45 10° SW 21:41:49 57° SSE 21:45:54 10° ENE
STARLINK-1115 3.7 21:39:20 10° WNW 21:43:27 63° SSW 21:46:11 20° SE
Cosmos 1975 3.9 21:40:09 10° NNW 21:44:00 41° W 21:47:48 10° SSW
Okean 1 Rocket 4.2 21:40:11 10° N 21:44:12 31° ENE 21:46:51 17° ESE
ERS-1 Rocket 3.0 21:40:28 16° SSE 21:44:33 82° ENE 21:49:37 10° NNW
Intercosmos 24 3.6 21:40:52 10° N 21:44:45 81° ENE 21:47:11 19° SSE
STARLINK-1126 4.1 21:41:31 10° WNW 21:45:38 58° NNE 21:49:43 10° E
SeaSat 1 3.7 21:42:47 10° NE 21:46:35 22° ESE 21:48:18 18° SE
STARLINK-1201 3.6 21:42:43 10° SW 21:46:49 62° SSE 21:50:55 10° ENE
STARLINK-1076 3.8 21:44:19 10° WNW 21:48:25 59° SSW 21:50:58 21° SE
Cosmos 1833 Rocket 2.7 21:43:00 10° NNW 21:48:40 88° WSW 21:52:51 19° SSE
Spot 2 Rocket 4.2 21:45:25 10° S 21:50:17 49° W 21:55:12 10° NNW
STARLINK-1082 4.1 21:46:34 10° WNW 21:50:41 61° NNE 21:54:34 11° E
SL-4 R/B 2.0 21:47:50 10° NNW 21:50:58 46° NE 21:52:33 23° ESE
STARLINK-1206 3.5 21:47:40 10° SW 21:51:47 66° SSE 21:55:54 10° ENE
GENESIS II 4.3 21:48:08 10° NW 21:52:11 71° SW 21:54:33 23° SSE
STARLINK-1092 3.8 21:49:18 10° WNW 21:53:22 55° SSW 21:55:44 23° SE
Cosmos 676 Rocket 4.2 21:48:38 10° NNW 21:53:50 66° WSW 21:57:51 17° S
Cosmos 332 Rocket 4.5 21:52:44 19° SSE 21:55:36 36° ESE 22:00:05 10° NE
STARLINK-1100 4.0 21:51:33 10° WNW 21:55:40 63° NNE 21:59:21 13° E
STARLINK-1205 3.5 21:52:37 10° SW 21:56:45 71° SSE 22:00:53 10° ENE
STARLINK-1080 3.9 21:54:20 10° WNW 21:58:21 51° SW 22:00:33 24° SSE
ISS -3.5 21:55:31 10° WNW 21:58:54 69° NNE 22:01:21 17° E
Cosmos 2056 Rocket 4.0 21:55:06 10° SW 22:00:09 61° WNW 22:05:15 10° NNE
STARLINK-67 4.5 21:58:56 10° NW 22:00:31 20° N 22:02:06 10° NE
STARLINK-1083 3.9 21:56:31 10° WNW 22:00:39 66° NNE 22:04:07 14° E
STARLINK-1218 3.5 21:57:34 10° SW 22:01:42 75° SSE 22:05:51 10° ENE
STARLINK-1090 4.0 21:59:19 10° WNW 22:03:19 48° SW 22:05:20 25° SSE
STARLINK-1125 3.8 22:01:30 10° WNW 22:05:39 69° NNE 22:08:54 16° ESE
STARLINK-1254 3.5 22:02:33 10° WSW 22:06:42 80° SSE 22:10:51 10° ENE
STARLINK-1089 4.1 22:04:19 10° WNW 22:08:16 44° SW 22:10:06 27° SSE
CARTOSAT-1 3.8 22:05:21 19° S 22:08:20 63° WSW 22:12:39 10° NNW
Cosmos 1943 Rocket 4.0 22:07:35 13° ESE 22:08:37 13° E 22:11:12 10° ENE
STARLINK-1109 3.8 22:06:28 10° WNW 22:10:37 72° NNE 22:13:40 18° ESE
SL-8 R/B 3.7 22:05:54 10° W 22:10:44 89° SSE 22:15:34 10° E
STARLINK-1231 3.5 22:07:32 10° WSW 22:11:41 84° SSE 22:15:51 10° ENE
STARLINK-1107 4.2 22:09:19 10° WNW 22:13:13 41° SW 22:14:53 27° SSE
STARLINK-1246 4.4 22:13:54 28° SSE 22:14:13 29° SE 22:17:49 10° ENE
Cosmos 1437 Rocket 2.6 22:12:21 26° S 22:14:20 68° E 22:18:08 10° NNE
Cosmos 2278 Rocket 2.3 22:09:04 10° SSW 22:14:45 82° WNW 22:20:29 10° NNE
STARLINK-1091 3.7 22:11:27 10° WNW 22:15:37 76° NNE 22:18:27 19° ESE
STARLINK-1232 3.5 22:12:30 10° WSW 22:16:39 89° SSE 22:20:49 10° ENE
STARLINK-1066 4.3 22:14:20 10° WNW 22:18:11 38° SW 22:19:40 28° S
STARLINK-1224 4.3 22:18:40 30° SSE 22:19:11 31° SE 22:22:51 10° ENE
STARLINK-1228 4.2 22:16:21 10° W 22:19:36 45° NNW 22:22:50 10° ENE
Terra 1.9 22:17:24 23° S 22:20:20 76° WSW 22:25:09 10° NNW
STARLINK-1072 3.6 22:16:26 10° WNW 22:20:37 79° NNE 22:23:14 22° ESE
Lacrosse 5 1.8 22:15:55 10° NW 22:21:00 84° SW 22:24:01 25° SE
STARLINK-1208 3.6 22:17:28 10° WSW 22:21:37 87° NNW 22:25:47 10° ENE
STARLINK-1234 4.1 22:19:26 10° W 22:22:26 43° NNW 22:25:27 10° ENE
STARLINK-1081 4.5 22:19:21 10° WNW 22:23:08 35° SW 22:24:27 28° S
STARLINK-1212 3.9 22:20:42 10° W 22:23:44 48° NNW 22:26:46 10° ENE
STARLINK-1225 4.2 22:23:26 31° SSE 22:24:08 33° SE 22:27:53 10° ENE
STARLINK-1105 3.9 22:21:11 10° W 22:24:13 48° NNW 22:27:14 10° ENE
STARLINK-1209 4.2 22:21:21 10° W 22:24:22 42° NNW 22:27:24 10° ENE
Crew Dragon 0.1 22:22:16 10° WNW 22:24:19 74° NNW 22:24:19 74° NNW
STARLINK-1247 3.9 22:22:06 10° W 22:25:08 48° NNW 22:28:11 10° ENE
STARLINK-1227 3.9 22:22:34 10° W 22:25:35 47° NNW 22:28:36 10° ENE
STARLINK-1096 3.6 22:21:27 10° WNW 22:25:37 83° NNE 22:28:03 24° ESE
Thor Agena Rocket 4.3 22:20:59 10° NNE 22:25:54 37° E 22:28:05 26° SE
STARLINK-1226 3.9 22:23:25 10° W 22:26:27 47° NNW 22:29:29 10° ENE
STARLINK-1271 3.6 22:22:28 10° WSW 22:26:37 82° NNW 22:30:47 10° ENE
STARLINK-1215 3.9 22:24:22 10° W 22:27:23 47° NNW 22:30:26 10° ENE
STARLINK-1230 4.1 22:28:12 32° S 22:29:04 36° SE 22:32:53 10° ENE
STARLINK-1217 4.0 22:26:09 10° W 22:29:10 46° NNW 22:32:12 10° ENE
BREEZE-M DEB (TANK) 4.0 22:12:23 10° SW 22:29:24 61° SSE 22:33:41 10° ENE
STARLINK-1229 4.0 22:27:04 10° W 22:30:05 46° NNW 22:33:08 10° ENE
STARLINK-1079 3.6 22:26:24 10° WNW 22:30:34 88° NNE 22:32:48 26° ESE
STARLINK-1270 4.0 22:27:56 10° W 22:30:57 45° NNW 22:33:59 10° ENE
Cosmos 1452 Rocket 3.5 22:26:10 12° SSW 22:31:03 86° WNW 22:36:23 10° NNE
STARLINK-1154 3.7 22:27:27 10° WSW 22:31:37 78° NNW 22:35:46 10° ENE
EXPRESS MD2 4.3 22:30:08 22° SSW 22:32:25 41° SE 22:39:23 10° ENE
STARLINK-1189 4.0 22:29:47 10° W 22:32:48 45° NNW 22:35:50 10° ENE
STARLINK-1188 4.1 22:30:40 10° W 22:33:41 44° NNW 22:36:43 10° ENE
STARLINK-1243 4.0 22:32:58 32° S 22:34:02 39° SE 22:37:54 10° ENE
MTI 3.7 22:30:54 10° N 22:34:03 77° WNW 22:35:11 36° SSW
STARLINK-1235 4.3 22:31:28 10° W 22:34:24 40° NNW 22:37:22 10° ENE
STARLINK-1187 4.2 22:31:51 10° W 22:34:49 42° NNW 22:37:47 10° ENE
STARLINK-1116 3.5 22:31:23 10° WNW 22:35:33 88° SSW 22:37:35 29° ESE
STARLINK-1191 4.1 22:33:10 10° W 22:36:10 43° NNW 22:39:09 10° ENE
STARLINK-1197 3.8 22:32:26 10° WSW 22:36:36 75° NNW 22:40:45 10° ENE
STARLINK-1221 4.1 22:34:03 10° W 22:37:02 43° NNW 22:40:02 10° ENE
Cosmos 1766 3.7 22:33:13 10° N 22:37:07 51° ENE 22:38:27 34° SE
STARLINK-1103 4.5 22:33:37 10° WNW 22:37:40 50° N 22:41:42 10° E
STARLINK-1222 4.1 22:34:57 10° W 22:37:55 43° NNW 22:40:56 10° ENE
STARLINK-1214 4.1 22:35:52 10° W 22:38:51 42° NNW 22:41:50 10° ENE
STARLINK-1236 3.9 22:37:44 32° S 22:38:59 42° SE 22:42:54 10° ENE
Abrixas rocket 1.8 22:37:33 10° W 22:40:31 90° N 22:41:15 47° E
STARLINK-1198 3.8 22:37:24 10° WSW 22:41:33 71° NNW 22:45:42 10° ENE
STARLINK-1101 4.4 22:38:36 10° WNW 22:42:39 51° NNE 22:46:42 10° E
Cosmos 371 Rocket 3.6 22:38:38 12° SSW 22:43:03 68° WNW 22:47:56 10° NNE
Cosmos 1461 3.4 22:43:04 35° SE 22:43:36 37° ESE 22:47:37 10° NE
Cosmos 1674 Rocket 4.0 22:41:53 20° SSW 22:44:44 59° WNW 22:49:05 10° N
STARLINK-1094 3.5 22:41:21 10° WNW 22:45:30 79° SSW 22:47:09 35° SE
STARLINK-1199 3.9 22:42:26 10° WSW 22:46:34 68° NNW 22:50:43 10° ENE
Meteor 1-23 Rocket 4.3 22:43:15 21° SSW 22:47:14 83° W 22:52:57 10° N
deb Kosmos-1763 3.9 22:43:56 10° NNW 22:47:33 80° ENE 22:48:29 47° SE
STARLINK-1102 4.4 22:43:36 10° WNW 22:47:40 52° NNE 22:51:44 10° E
STARLINK-1269 3.7 22:47:16 30° SSW 22:48:53 48° SE 22:52:54 10° ENE
Cosmos 2026 Rocket 4.4 22:45:53 27° SSE 22:49:00 50° E 22:55:05 10° NNE
STARLINK-1117 3.5 22:46:21 10° WNW 22:50:29 74° SSW 22:51:57 38° SE
USA 215 3.2 22:45:48 20° SE 22:50:39 87° SW 22:57:14 10° NW
STARLINK-1210 4.0 22:47:25 10° WSW 22:51:32 65° NNW 22:55:41 10° ENE
Cosmos 1378 Rocket 3.8 22:49:36 24° SSW 22:52:08 65° W 22:56:33 10° N
STARLINK-1111 4.3 22:48:35 10° WNW 22:52:39 54° NNE 22:56:31 11° E
STARLINK-1200 3.7 22:52:04 29° SSW 22:53:52 52° SE 22:57:55 10° ENE
SPOT 5 4.4 22:51:41 15° SSW 22:55:08 30° W 22:59:47 10° NNW
STARLINK-1078 3.5 22:51:19 10° WNW 22:55:27 69° SSW 22:56:42 42° SE
Cosmos 1733 3.3 22:52:38 10° N 22:56:28 65° E 22:57:26 45° SE
STARLINK-1219 4.1 22:52:25 10° W 22:56:32 63° NNW 23:00:40 10° ENE
NOSS 2-2 (D) 4.2 22:57:13 28° ESE 22:57:13 28° ESE 23:00:07 10° ENE
STARLINK-1073 4.2 22:53:34 10° WNW 22:57:40 56° NNE 23:01:19 13° E
STARLINK-1192 3.6 22:56:50 27° SSW 22:58:50 56° SSE 23:02:54 10° ENE
STARLINK-1108 3.6 22:56:18 10° WNW 23:00:25 65° SSW 23:01:30 45° SSE
Meteor 1-22 Rocket 4.3 22:54:49 10° N 23:00:53 83° ENE 23:03:47 32° SSE
STARLINK-1211 4.2 22:57:24 10° W 23:01:31 60° NNW 23:05:38 10° ENE
Cosmos 1975 Rocket 3.2 23:00:54 39° SSE 23:02:17 59° E 23:06:40 10° NNE
Nadezhda 4 Rocket 4.2 22:58:09 19° SSW 23:02:37 67° W 23:08:45 10° N
STARLINK-1121 4.2 22:58:32 10° WNW 23:02:39 58° NNE 23:06:04 14° E
STARLINK-1244 3.5 23:01:36 26° SW 23:03:47 60° SSE 23:07:52 10° ENE
STARLINK-1071 3.6 23:01:17 10° WNW 23:05:23 61° SSW 23:06:17 47° SSE
STARLINK-1245 4.2 23:02:26 10° W 23:06:31 58° NNW 23:10:38 10° ENE
STARLINK-1106 4.1 23:03:31 10° WNW 23:07:38 60° NNE 23:10:51 16° E
STARLINK-1138 3.5 23:06:22 24° SW 23:08:45 64° SSE 23:12:52 10° ENE
ERBS 2.8 23:06:15 10° WSW 23:09:31 58° NNW 23:12:48 10° NE
STARLINK-1110 3.7 23:05:30 10° WNW 23:09:34 57° SSW 23:10:18 48° S
TSX-5 4.4 23:06:21 17° SSW 23:10:49 85° WNW 23:15:22 10° NNE
Cosmos 2297 3.6 23:07:18 24° SSW 23:10:51 85° ESE 23:16:37 10° NNE
STARLINK-1203 3.5 23:08:11 18° SW 23:11:10 68° SSE 23:15:21 10° ENE
STARLINK-1233 4.3 23:07:25 10° W 23:11:30 56° NNW 23:15:36 10° ENE
Cosmos 1242 Rocket 3.6 23:11:36 31° E 23:11:45 31° E 23:15:02 10° NNE
STARLINK-1112 4.0 23:08:31 10° WNW 23:12:39 62° NNE 23:15:39 18° E
STARLINK-1143 3.5 23:11:09 22° SW 23:13:43 69° SSE 23:17:51 10° ENE
ATLAS 3B R/B 4.2 23:08:17 10° NW 23:14:14 32° NNE 23:20:20 10° E
STARLINK-1124 3.7 23:11:16 10° WNW 23:15:19 53° SW 23:15:51 49° S
NOSS 2-2 (E) 3.1 23:15:11 55° SSE 23:15:29 57° SE 23:19:29 10° NE
STARLINK-1204 4.4 23:12:26 10° W 23:16:31 54° NNW 23:20:36 10° ENE
STARLINK-1128 3.9 23:13:30 10° WNW 23:17:38 65° NNE 23:20:26 20° E
CENTAUR R/B 3.7 23:10:55 10° NW 23:18:33 55° NE 23:27:03 10° ESE
STARLINK-1241 3.4 23:15:53 20° SW 23:18:42 73° SSE 23:22:50 10° ENE
Cosmos 1470 3.3 23:16:01 10° N 23:19:48 47° ENE 23:20:37 40° ESE
STARLINK-1122 3.8 23:16:16 10° WNW 23:20:17 49° SW 23:20:37 47° SSW
STARLINK-1238 4.4 23:17:25 10° W 23:21:29 53° NNW 23:25:34 10° ENE
Okean 1 Rocket 4.5 23:18:08 10° NNW 23:22:03 30° W 23:24:02 21° SW
STARLINK-1113 3.9 23:18:29 10° WNW 23:22:37 68° NNE 23:25:12 22° E
STARLINK-1239 3.4 23:20:39 18° SW 23:23:39 78° SSE 23:27:49 10° ENE
Cosmos 2082 Rocket 3.5 23:18:51 10° NW 23:23:40 28° WSW 23:26:09 21° SW
SL-4 R/B 3.8 23:22:07 10° W 23:23:23 13° WSW 23:23:23 13° WSW
Aureole 2 Rocket 2.8 23:23:16 42° WSW 23:23:54 50° WNW 23:26:55 10° NNE
SeaSat 1 2.8 23:19:33 10° NNE 23:24:27 65° NW 23:28:04 18° SW
STARLINK-1126 3.9 23:21:13 10° WNW 23:25:11 45° SW 23:25:21 45° SSW
STARLINK-1201 4.5 23:22:27 10° W 23:26:30 51° NNW 23:30:34 10° ENE
Cosmos 1110 Rocket 4.1 23:23:40 26° SSW 23:26:38 73° WNW 23:31:50 10° NNE
EO 1 Del DPAF 3.5 23:23:44 10° N 23:27:29 61° WNW 23:28:37 40° SW
STARLINK-1119 3.8 23:23:28 10° WNW 23:27:37 71° NNE 23:29:59 24° ESE
Cosmos 1805 4.3 23:24:01 10° NNW 23:27:39 36° W 23:28:42 30° SW
BREEZE-M DEB 3.3 23:25:25 17° WSW 23:27:52 75° SSE 23:37:34 10° ENE
STARLINK-1240 3.5 23:25:26 16° WSW 23:28:39 83° SSE 23:32:48 10° ENE
BREEZE-M DEB (TANK) 2.9 23:25:52 10° W 23:29:35 81° N 23:33:44 10° E
STARLINK-1082 4.1 23:26:17 10° WNW 23:30:11 42° SW 23:30:11 42° SW
Okean 2 3.6 23:29:56 39° SW 23:31:15 63° WNW 23:35:24 10° N
Cosmos 304 Rocket 4.5 23:28:37 20° SW 23:31:47 51° WNW 23:36:28 10° NNE
STARLINK-1114 3.7 23:28:27 10° WNW 23:32:37 74° NNE 23:34:46 27° ESE
STARLINK-1216 3.5 23:30:12 15° WSW 23:33:37 87° SSE 23:37:47 10° ENE
Cosmos 1455 Rocket 3.1 23:30:45 10° NNW 23:35:06 71° W 23:36:14 47° SSW
STARLINK-1100 4.2 23:31:16 10° WNW 23:34:58 39° SW 23:34:58 39° SW
Helios 1A 3.7 23:33:57 34° ESE 23:35:15 45° ENE 23:39:15 10° N
ISS -2.1 23:32:29 10° W 23:34:15 23° WSW 23:34:15 23° WSW
Cosmos 968 Rocket 4.0 23:30:32 10° NNW 23:35:38 53° ENE 23:38:01 29° SE
STARLINK-1130 (DARKSAT) 3.7 23:33:25 10° WNW 23:37:34 78° NNE 23:39:32 30° ESE
NOSS 2-2 (C) 3.0 23:37:49 64° S 23:38:16 76° SE 23:42:18 10° NE
ATLAS 2AS CENTAUR R/B 3.9 23:35:53 26° SE 23:38:31 32° ESE 23:45:18 10° NE
STARLINK-1237 3.5 23:34:58 13° WSW 23:38:36 88° NNW 23:42:46 10° ENE
STARLINK-1083 4.4 23:36:17 10° WNW 23:39:45 36° SW 23:39:45 36° SW
Cosmos 1092 Rocket 4.4 23:36:57 23° SW 23:40:44 55° WNW 23:46:46 10° N
Cosmos 2369 Rocket 2.5 23:38:58 37° SSE 23:40:47 51° ESE 23:46:15 10° NE
Cosmos 1842 3.5 23:40:42 45° SW 23:41:39 62° WNW 23:45:32 10° N
STARLINK-1084 3.6 23:38:23 10° WNW 23:42:33 82° NNE 23:44:19 34° ESE
Cosmos 1417 Rocket 4.5 23:36:17 10° N 23:42:37 82° E 23:45:32 35° SSE
STARLINK-1202 3.6 23:39:45 12° WSW 23:43:36 84° NNW 23:47:46 10° ENE
Cosmos 1486 Rocket 4.0 23:39:23 10° NNW 23:44:44 79° ENE 23:46:50 38° SSE
NOSS 3-2 (A) 4.0 23:37:24 10° NW 23:44:53 86° SW 23:50:12 25° SE
Nimbus 7 Rocket 4.4 23:39:10 10° NNE 23:45:18 83° ESE 23:48:08 34° S
Meteor 1-21 4.2 23:43:32 36° S 23:45:56 88° E 23:51:37 10° NNE
Cosmos 1025 Rocket 3.2 23:45:35 48° SE 23:46:24 57° E 23:50:36 10° NNE
STARLINK-1098 3.5 23:43:24 10° WNW 23:47:34 86° NNE 23:49:07 38° ESE
Cosmos 1943 Rocket 2.1 23:49:04 36° SSW 23:51:26 82° ESE 23:57:03 10° NNE
USA 238 DEB 3.8 23:45:00 10° NW 23:52:12 80° SW 23:56:22 29° SSE
USA 238 3.8 23:45:05 10° NW 23:52:17 80° SW 23:56:29 29° SSE
Helios 1B rocket 4.1 23:49:13 10° NE 23:52:19 20° E 23:52:51 20° ESE
STARLINK-1123 3.5 23:48:22 10° WNW 23:52:32 89° SSW 23:53:53 42° ESE
SL-8 R/B 3.6 23:48:28 10° W 23:53:17 72° SSW 23:55:49 28° ESE
STARLINK-1246 3.7 23:49:24 10° WSW 23:53:32 76° NNW 23:57:42 10° ENE
Cosmos 1302 Rocket 4.0 23:52:25 36° SSW 23:54:38 86° WNW 00:00:00 10° NNE
STARLINK-1228 4.5 23:53:28 10° WNW 23:56:38 38° N 23:59:48 10° ENE
